Regional Weather Roundup
Issued by NWS

Home | Current Version | Previous Version | Text Only | Print | Product List | Glossary On
Versions: 1 2 3 4 5 6 7 8 9 10 11 12 13 14 15 16 17 18 19 20 21 22 23 24 25 26 27 28 29 30 31 32 33 34 35 36 37 38 39 40 41 42 43 44 45 46 47 48 49 50
000
ASUS43 KLSX 100507
RWRMO

WEATHER SUMMARY FOR MISSOURI
NATIONAL WEATHER SERVICE SPRINGFIELD MO
1200 AM CDT THU JUL 10 2014

NOTE: "FAIR" INDICATES FEW OR NO CLOUDS BELOW 12,000 FEET WITH NO
       SIGNIFICANT WEATHER AND/OR OBSTRUCTIONS TO VISIBILITY.
       CURRENT SKY AND/OR WEATHER CONDITIONS ARE NOT AVAILABLE FOR
       CHILLICOTHE AND FARMINGTON.

MOZ001>031-035>038-043-044-053-054-100600-
...NORTHERN AND WESTERN MISSOURI...

CITY           SKY/WX    TMP DP  RH WIND       PRES   REMARKS
KANSAS CTY INT CLOUDY    71  60  68 SE7       30.07F
KANSAS C DTWN  MOCLDY    75  60  59 SE7       30.06S
LEE`S SUMMIT   PTCLDY    70  61  73 E5        30.09R
ST JOSEPH      CLOUDY    71  62  73 S3        30.05F
CHILLICOTHE      N/A     67  63  87 CALM      30.08S
KIRKSVILLE     PTCLDY    61  59  93 CALM      30.09R

$$
MOZ066>068-077>081-088>096-101>105-100600-
...SOUTHWEST MISSOURI...

CITY           SKY/WX    TMP DP  RH WIND       PRES   REMARKS
SPRINGFIELD    CLEAR     73  62  68 NE5       30.10R
JOPLIN         CLEAR     69  61  75 SE6       30.08R

$$
MOZ032>034-039>042-045>050-055>058-069>072-100600-
...CENTRAL MISSOURI...

CITY           SKY/WX    TMP DP  RH WIND       PRES   REMARKS
COLUMBIA       CLEAR     66  60  81 E6        30.10R
JEFFERSON CITY CLEAR     65  61  87 CALM      30.09R
ROLLA            N/A    N/A N/A N/A MISG      30.10R
SEDALIA        PTCLDY    65  61  87 SE5       30.09S
WHITEMAN AFB   PTCLDY    66  57  73 E2        30.08S
OSAGE BEACH    PTCLDY    64  59  82 CALM      30.10R

$$
MOZ051-052-059>065-100600-
...EAST CENTRAL MISSOURI...

CITY           SKY/WX    TMP DP  RH WIND       PRES   REMARKS
ST LOUIS INTL  PTCLDY    72  59  63 NE3       30.08R
SPIRIT OF STL  CLEAR     62  60  93 CALM      30.07R
ST CHARLES     CLEAR     64  60  87 CALM      30.07R

$$
MOZ072>076-082>087-097>100-106>115-100600-
...SOUTH CENTRAL AND SOUTHEAST MISSOURI...

CITY           SKY/WX    TMP DP  RH WIND       PRES   REMARKS
CAPE GIRARDEAU NOT AVBL
FARMINGTON       N/A     72  59  64 CALM      30.10
POPLAR BLUFF   CLEAR     69  66  90 CALM      30.03R
WEST PLAINS    PTCLDY    65  62  90 CALM      30.11R

$$


USA.gov is the U.S. government's official web portal to all federal, state and local government web resources and services.